When you browse on this site, cookies collect data to enhance your experience and personalize the content and advertising you see.
Visit our Privacy Policy to learn more. By continuing to use the site, you agree to this use of cookies and data.
  • In Germany
  • List of Countries
  • For 7 days
  • Water Temperature
  • Weather Map
  • Weather Widgets
  • user-avatar
    Login

    Hourly Weather Laya

    Today, 16 October, Wednesday

    Time Temperature Precipitation Wind Pressure Humidity
    00:00 0°C° 0 mm 3 mps 733 mmHg 88%
    01:00 0°C° 0 mm 3 mps 733 mmHg 88%
    02:00 0°C° 0 mm 3 mps 734 mmHg 87%
    03:00 0°C° 0 mm 3 mps 734 mmHg 86%
    04:00 0°C° 0 mm 3 mps 734 mmHg 86%
    05:00 0°C° 0 mm 3 mps 735 mmHg 86%
    06:00 0°C° 0 mm 3 mps 735 mmHg 86%
    07:00 0°C° 0 mm 3 mps 736 mmHg 87%
    08:00 0°C° 0 mm 4 mps 736 mmHg 83%
    09:00 0°C° 0 mm 4 mps 737 mmHg 79%
    10:00 0°C° 0 mm 4 mps 737 mmHg 76%
    11:00 +1°C° 0 mm 4 mps 737 mmHg 74%
    12:00 +1°C° 0 mm 4 mps 738 mmHg 72%
    13:00 +3°C° 0 mm 4 mps 738 mmHg 70%
    14:00 +1°C° 0 mm 4 mps 739 mmHg 71%
    15:00 +1°C° 0 mm 4 mps 739 mmHg 71%
    16:00 0°C° 0 mm 4 mps 740 mmHg 72%
    17:00 0°C° 0 mm 4 mps 741 mmHg 74%
    18:00 -1°C° 0 mm 4 mps 741 mmHg 76%
    19:00 -2°C° 0 mm 4 mps 741 mmHg 79%
    20:00 -2°C° 0 mm 4 mps 742 mmHg 80%
    21:00 -2°C° 0 mm 4 mps 742 mmHg 81%
    22:00 -2°C° 0 mm 4 mps 742 mmHg 82%
    23:00 -2°C° 0 mm 4 mps 743 mmHg 81%

    Tomorrow, 17 October, Thursday

    Time Temperature Precipitation Wind Pressure Humidity
    00:00 -2°C° 0 mm 4 mps 743 mmHg 80%
    01:00 -2°C° 0 mm 4 mps 743 mmHg 79%
    02:00 -2°C° 0 mm 3 mps 744 mmHg 80%
    03:00 -2°C° 0 mm 3 mps 744 mmHg 80%
    04:00 -2°C° 0 mm 3 mps 744 mmHg 81%
    05:00 -2°C° 0 mm 3 mps 745 mmHg 81%
    06:00 -2°C° 0 mm 3 mps 745 mmHg 81%
    07:00 -3°C° 0 mm 4 mps 745 mmHg 81%
    08:00 -2°C° 0 mm 4 mps 745 mmHg 77%
    09:00 -2°C° 0 mm 4 mps 745 mmHg 73%
    10:00 -1°C° 0 mm 4 mps 745 mmHg 69%
    11:00 -1°C° 0 mm 4 mps 745 mmHg 68%
    12:00 0°C° 0 mm 3 mps 745 mmHg 68%
    13:00 0°C° 0 mm 3 mps 745 mmHg 67%
    14:00 0°C° 0 mm 3 mps 745 mmHg 69%
    15:00 0°C° 0 mm 3 mps 745 mmHg 70%
    16:00 0°C° 0 mm 3 mps 745 mmHg 71%
    17:00 -1°C° 0 mm 2 mps 744 mmHg 76%
    18:00 -1°C° 0 mm 2 mps 744 mmHg 81%
    19:00 +1°C° 0 mm 1 mps 744 mmHg 85%
    20:00 0°C° 0.3 mm 1 mps 743 mmHg 89%
    21:00 0°C° 0.3 mm 1 mps 743 mmHg 93%
    22:00 0°C° 0.3 mm 1 mps 742 mmHg 96%
    23:00 0°C° 0.5 mm 1 mps 742 mmHg 96%

    Day after tomorrow, 18 October, Friday

    Time Temperature Precipitation Wind Pressure Humidity
    00:00 0°C° 0.5 mm 1 mps 741 mmHg 97%
    01:00 0°C° 0.5 mm 1 mps 740 mmHg 97%
    02:00 0°C° 0.3 mm 1 mps 740 mmHg 97%
    03:00 0°C° 0.3 mm 1 mps 740 mmHg 97%
    04:00 0°C° 0.3 mm 1 mps 740 mmHg 97%
    05:00 -2°C° 0.2 mm 2 mps 739 mmHg 97%
    06:00 -2°C° 0.2 mm 2 mps 739 mmHg 97%
    07:00 -2°C° 0.2 mm 2 mps 738 mmHg 97%
    08:00 -2°C° 0.3 mm 2 mps 739 mmHg 96%
    09:00 -1°C° 0.3 mm 3 mps 739 mmHg 94%
    10:00 -1°C° 0.3 mm 3 mps 739 mmHg 92%
    11:00 -1°C° 0.2 mm 3 mps 739 mmHg 91%
    12:00 -1°C° 0.2 mm 4 mps 740 mmHg 89%
    13:00 -1°C° 0.2 mm 4 mps 740 mmHg 88%
    14:00 -2°C° 0.1 mm 4 mps 741 mmHg 88%
    15:00 -2°C° 0.1 mm 4 mps 741 mmHg 89%
    16:00 -2°C° 0.1 mm 4 mps 742 mmHg 90%
    17:00 -3°C° 0.1 mm 4 mps 743 mmHg 89%
    18:00 -3°C° 0.1 mm 4 mps 743 mmHg 87%
    19:00 -4°C° 0.1 mm 4 mps 744 mmHg 86%
    20:00 -4°C° 0 mm 4 mps 745 mmHg 85%
    21:00 -5°C° 0 mm 4 mps 745 mmHg 83%
    22:00 -5°C° 0 mm 3 mps 746 mmHg 82%
    23:00 -6°C° 0 mm 3 mps 746 mmHg 86%

    19 October, Saturday

    Time Temperature Precipitation Wind Pressure Humidity
    00:00 -6°C° 0 mm 2 mps 747 mmHg 90%
    01:00 -7°C° 0 mm 2 mps 747 mmHg 94%
    02:00 -7°C° 0 mm 2 mps 748 mmHg 95%
    03:00 -7°C° 0 mm 2 mps 748 mmHg 95%
    04:00 -7°C° 0 mm 2 mps 749 mmHg 96%
    05:00 -6°C° 0 mm 1 mps 749 mmHg 96%
    06:00 -7°C° 0 mm 1 mps 749 mmHg 96%
    07:00 -7°C° 0 mm 1 mps 750 mmHg 95%
    08:00 -4°C° 0 mm 1 mps 750 mmHg 87%
    09:00 -3°C° 0 mm 1 mps 751 mmHg 79%
    10:00 -1°C° 0 mm 1 mps 751 mmHg 71%
    11:00 -1°C° 0 mm 1 mps 751 mmHg 67%
    12:00 0°C° 0 mm 1 mps 751 mmHg 63%
    13:00 0°C° 0 mm 0 mps 751 mmHg 59%
    14:00 -1°C° 0 mm 0 mps 751 mmHg 62%
    15:00 -1°C° 0 mm 0 mps 751 mmHg 65%
    16:00 -2°C° 0 mm 0 mps 751 mmHg 68%
    17:00 -3°C° 0 mm 0 mps 751 mmHg 72%
    18:00 -2°C° 0 mm 1 mps 751 mmHg 75%
    19:00 -3°C° 0 mm 1 mps 751 mmHg 79%
    20:00 -3°C° 0 mm 1 mps 752 mmHg 80%
    21:00 -4°C° 0 mm 1 mps 752 mmHg 82%
    22:00 -4°C° 0 mm 1 mps 752 mmHg 83%
    23:00 -4°C° 0 mm 1 mps 752 mmHg 84%

    20 October, Sunday

    Time Temperature Precipitation Wind Pressure Humidity
    00:00 -4°C° 0 mm 1 mps 752 mmHg 85%
    01:00 -6°C° 0 mm 2 mps 752 mmHg 86%
    02:00 -6°C° 0 mm 2 mps 751 mmHg 86%
    03:00 -6°C° 0 mm 2 mps 751 mmHg 86%
    04:00 -7°C° 0 mm 2 mps 751 mmHg 86%
    05:00 -6°C° 0 mm 2 mps 751 mmHg 85%
    06:00 -6°C° 0 mm 2 mps 751 mmHg 84%
    07:00 -6°C° 0 mm 2 mps 751 mmHg 83%
    08:00 -5°C° 0 mm 2 mps 751 mmHg 77%
    09:00 -5°C° 0 mm 3 mps 751 mmHg 72%
    10:00 -2°C° 0 mm 3 mps 750 mmHg 67%
    11:00 -2°C° 0 mm 4 mps 750 mmHg 67%
    12:00 -1°C° 0 mm 4 mps 749 mmHg 67%
    13:00 0°C° 0 mm 5 mps 749 mmHg 67%
    14:00 -1°C° 0 mm 5 mps 748 mmHg 69%
    15:00 -1°C° 0 mm 5 mps 748 mmHg 72%
    16:00 -1°C° 0 mm 5 mps 748 mmHg 74%
    17:00 -1°C° 0 mm 5 mps 747 mmHg 74%
    18:00 -2°C° 0 mm 5 mps 747 mmHg 74%
    19:00 -3°C° 0 mm 6 mps 746 mmHg 74%
    20:00 -3°C° 0 mm 6 mps 746 mmHg 77%
    21:00 -3°C° 0 mm 6 mps 746 mmHg 79%
    22:00 -2°C° 0 mm 6 mps 745 mmHg 81%
    23:00 -2°C° 0.1 mm 6 mps 745 mmHg 84%

    21 October, Monday

    Time Temperature Precipitation Wind Pressure Humidity
    00:00 -2°C° 0.1 mm 6 mps 745 mmHg 87%
    01:00 -2°C° 0.1 mm 6 mps 744 mmHg 91%
    02:00 0°C° 0.1 mm 5 mps 744 mmHg 91%
    03:00 0°C° 0.1 mm 4 mps 744 mmHg 92%
    04:00 0°C° 0.1 mm 4 mps 744 mmHg 93%
    05:00 0°C° 0.1 mm 4 mps 744 mmHg 93%
    06:00 +2°C° 0.1 mm 3 mps 743 mmHg 93%
    07:00 +2°C° 0.1 mm 3 mps 743 mmHg 94%
    08:00 +2°C° 0 mm 3 mps 743 mmHg 93%
    09:00 +2°C° 0 mm 3 mps 743 mmHg 93%
    10:00 +3°C° 0 mm 2 mps 744 mmHg 93%
    11:00 +3°C° 0.1 mm 2 mps 744 mmHg 93%
    12:00 +4°C° 0.1 mm 2 mps 744 mmHg 93%
    13:00 +4°C° 0.1 mm 2 mps 744 mmHg 93%
    14:00 +4°C° 0 mm 2 mps 745 mmHg 94%
    15:00 +4°C° 0 mm 1 mps 745 mmHg 95%
    16:00 +4°C° 0 mm 1 mps 745 mmHg 95%
    17:00 +4°C° 0 mm 1 mps 746 mmHg 96%
    18:00 +3°C° 0 mm 1 mps 746 mmHg 97%
    19:00 +3°C° 0 mm 1 mps 746 mmHg 97%
    20:00 +3°C° 0 mm 1 mps 746 mmHg 98%
    21:00 +3°C° 0 mm 1 mps 746 mmHg 98%
    22:00 +3°C° 0 mm 1 mps 746 mmHg 98%
    23:00 +2°C° 0 mm 1 mps 746 mmHg 98%
    Show more